Home   Weather   Washington, D.C.   Past weeks
Flag for USA

Past Weather in Washington, D.C., District of Columbia, USA — Yesterday and Last 2 Weeks

Now
61 °F

Scattered clouds.


Feels Like: 61 °F
Forecast: 64 / 46 °F
Wind: 12 mph from Northeast

Location: Reagan National Airport
Current Time: Sep 19, 2020 at 12:44:41 pm
Latest Report: Sep 19, 2020 at 11:52 am
Visibility: 10 mi
Pressure30.37 "Hg
Humidity: 38%
Dew Point: 35 °F
Location of Washington, D.C.Location

Past Weather in Washington, D.C. — Graph

°F

Washington, D.C. Temperature Yesterday

Maximum temperature yesterday: 75 °F (at 3:52 pm)
Minimum temperature yesterday: 62 °F (at 11:52 pm)
Average temperature yesterday: 69 °F

High & Low Weather Summary for the Past Weeks

 TemperatureHumidityPressure
High90 °F (Sep 4, 1:52 pm)97% (Sep 9, 9:20 pm)30.37 "Hg (Sep 9, 9:20 pm)
Low50 °F (Sep 19, 6:52 am)35% (Sep 5, 12:52 pm)29.88 "Hg (Sep 18, 4:52 am)
Average72 °F74%30.15 "Hg
* Reported Sep 4 10:52 am — Sep 19 10:52 am, Washington, D.C.. Weather by CustomWeather, © 2020

Note: Actual official high and low records may vary slightly from our data, if they occured in-between our weather recording intervals... More about our weather records

Washington, D.C. Weather History for the Previous 24 Hours

Scroll right to see more
 ConditionsComfort  
Time TempWeatherWind HumidityBarometerVisibility
10:52 am
Sat, Sep 19
59 °FScattered clouds.15 mph41%30.37 "Hg10 mi
9:52 am57 °FScattered clouds.15 mph44%30.35 "Hg10 mi
8:52 am54 °FBroken clouds.16 mph47%30.34 "Hg10 mi
7:52 am51 °FScattered clouds.13 mph56%30.32 "Hg10 mi
6:52 am50 °FPassing clouds.14 mph59%30.30 "Hg10 mi
5:52 am51 °FPassing clouds.15 mph54%30.29 "Hg10 mi
4:52 am52 °FClear.13 mph53%30.27 "Hg10 mi
3:52 am53 °FClear.13 mph52%30.25 "Hg10 mi
2:52 am55 °FClear.18 mph49%30.25 "Hg10 mi
1:52 am57 °FClear.20 mph46%30.23 "Hg10 mi
12:52 am59 °FClear.15 mph46%30.20 "Hg10 mi
11:52 pm
Fri, Sep 18
62 °FPassing clouds.17 mph46%30.17 "Hg10 mi
10:52 pm64 °FPassing clouds.20 mph49%30.14 "Hg10 mi
9:52 pm66 °FPassing clouds.14 mph50%30.11 "Hg10 mi
8:52 pm66 °FPassing clouds.12 mph54%30.08 "Hg10 mi
7:52 pm68 °FPassing clouds.12 mph53%30.05 "Hg10 mi
6:52 pm69 °FScattered clouds.8 mph55%30.02 "Hg10 mi
5:52 pm71 °FBroken clouds.14 mph49%30.00 "Hg10 mi
4:52 pm74 °FBroken clouds.15 mph48%29.98 "Hg10 mi
3:52 pm75 °FScattered clouds.16 mph54%29.97 "Hg10 mi
2:52 pm74 °FOvercast.10 mph62%29.97 "Hg10 mi
2:08 pm73 °FMore clouds than sun.15 mph62%29.98 "Hg10 mi
12:52 pm70 °FOvercast.15 mph73%29.98 "Hg10 mi
Weather by CustomWeather, © 2020

See weather overview